SCP
0 0 0 0 0 0 0 0 0 0 0 0 0 0 0 0 0 0 0 0 0 0 0 0 0 0 0 0 0 0 0 0 1 1 1 1 1 1 1 1 1 1 1
0 0 0 0 0 0 0 0 0 0 0 0 0 0 0 0 0 0 0 0 0 0 0 0 0 0 0 0 0 0 0 0 1 1 1 1 1 1 1 1 1 1 1
0 0 0 0 0 0 0 0 0 0 0 0 0 0 0 0 0 0 0 0 0 0 0 0 0 0 0 0 0 0 0 0 0 0 1 1 1 1 1 1 1 1 1
0 0 0 0 0 0 0 0 0 0 0 0 0 0 0 0 0 0 0 0 0 0 0 0 0 0 0 0 0 0 0 0 0 0 1 1 1 1 1 1 1 1 1
0 0 0 0 0 0 0 0 0 0 0 0 0 0 0 0 0 0 0 0 0 0 0 0 0 0 0 0 0 0 0 0 0 0 0 0 1 1 1 1 1 1 1
0 0 0 0 0 0 0 0 0 0 0 0 0 0 0 0 0 0 0 0 0 0 0 0 0 0 0 0 0 0 0 0 0 0 0 0 0 1 1 1 1 1 1
0 0 0 0 0 0 0 0 0 0 0 0 0 0 0 0 0 0 0 0 0 0 0 0 0 0 0 0 0 0 0 0 0 0 0 0 0 1 1 1 1 1 1
0 0 1 1 0 0 0 0 0 0 0 0 0 0 0 0 0 0 0 0 0 0 0 0 0 0 0 0 0 0 0 0 0 0 0 0 0 0 1 1 1 1 1
0 0 1 1 1 0 0 0 0 0 0 0 0 0 0 0 0 0 0 0 0 0 0 0 0 0 0 0 0 0 0 0 0 0 0 0 0 0 0 1 1 1 1
0 0 0 1 1 0 0 0 0 0 0 0 0 0 0 0 0 0 0 0 0 0 0 0 0 0 0 0 0 0 0 0 0 0 0 0 0 0 0 1 1 1 1
0 0 0 1 1 0 0 0 0 0 0 0 0 0 0 0 0 0 0 0 0 0 0 0 0 0 0 0 0 0 0 0 0 0 0 0 0 0 0 0 1 1 1
0 0 0 0 0 0 0 0 0 0 0 0 0 0 0 0 0 0 0 0 0 0 0 0 0 0 0 0 0 0 0 0 0 0 0 0 0 0 0 0 0 1 1
0 0 0 0 0 0 0 0 0 0 0 0 0 0 0 0 0 0 0 0 0 0 0 0 0 0 0 0 0 0 0 0 0 0 0 0 0 0 0 1 1 0 0
0 0 0 0 0 0 0 0 0 0 0 0 0 0 0 0 0 0 0 0 0 0 0 0 0 0 0 0 0 0 0 0 0 0 0 0 0 0 0 0 0 0 0
0 0 0 0 0 0 0 0 0 0 0 0 0 0 0 0 0 0 0 0 0 0 0 0 0 0 0 0 0 0 0 0 0 0 0 0 0 0 0 0 0 0 0
0 0 0 0 0 0 0 0 0 0 0 0 0 0 0 0 0 0 0 0 0 0 0 0 0 0 0 0 0 0 0 0 0 0 0 0 0 0 0 0 0 0 0
0 0 0 0 0 0 0 0 0 0 0 0 0 0 0 0 0 0 0 0 0 0 0 0 0 0 0 0 0 0 0 0 0 0 0 0 0 0 0 0 0 0 0
0 0 0 0 0 0 0 0 0 0 0 0 0 0 0 0 0 0 0 0 0 0 0 0 0 0 0 0 0 0 0 0 0 0 0 0 0 0 0 0 0 0 0
0 0 0 0 0 0 0 0 0 0 0 0 0 0 0 0 0 0 0 0 0 0 0 0 0 0 0 0 0 0 0 0 0 0 0 0 0 0 0 0 0 0 0
0 0 0 0 0 0 0 0 0 0 0 0 0 0 0 0 0 0 0 0 0 0 0 0 0 0 0 0 0 0 0 0 0 0 0 0 0 0 0 0 0 0 0
0 0 0 0 0 0 0 0 0 0 0 0 0 0 0 0 0 0 0 0 0 0 0 0 0 0 0 0 0 0 0 0 0 0 0 0 0 0 0 0 0 0 0
0 0 0 0 0 0 0 0 0 0 0 0 0 0 0 0 0 0 0 0 0 0 0 0 0 0 0 0 0 0 0 0 0 0 0 0 0 0 0 0 0 0 0
0 0 0 0 0 0 0 0 0 0 0 0 0 0 0 0 0 0 0 0 0 0 0 0 0 0 0 0 0 0 0 0 0 0 0 0 0 0 0 0 0 0 0
0 0 0 0 0 0 0 0 0 0 0 0 0 0 0 0 0 0 0 0 0 0 0 0 0 0 0 0 0 0 0 0 0 0 0 0 0 0 0 0 0 0 0
0 0 0 0 0 0 0 0 0 0 0 0 0 0 0 0 0 0 0 0 0 0 0 0 0 0 0 0 0 0 0 0 0 0 0 0 0 0 0 0 0 0 0
0 0 0 0 0 0 0 0 0 0 0 0 0 0 0 0 0 0 0 0 0 0 0 0 0 0 0 0 0 0 0 0 0 0 0 0 0 0 0 0 0 0 0
Wind_Speed
7 7 7 7 7 7 7 6 5 4 3 2 2 1 1 0 0 1 3 3 4 4 4 4 4 4 3 4 4 3 2 2 2 2 1 1 1 0 1 1 1 1 1
7 7 7 7 8 7 7 7 6 5 4 2 1 0 1 1 1 1 1 3 3 4 4 4 4 3 3 3 3 2 3 2 2 2 2 1 2 1 1 1 1 1 2
7 8 8 8 8 8 7 6 6 6 4 3 2 1 1 1 1 1 1 2 3 3 4 4 4 4 3 2 3 3 3 2 2 2 2 2 0 1 2 1 1 1 1
7 7 8 8 8 8 7 7 7 6 5 5 3 2 1 2 2 2 1 2 2 3 3 4 4 3 3 3 3 2 2 3 2 1 2 2 2 2 1 2 2 2 1
6 7 7 7 7 7 7 7 7 6 6 5 4 3 2 2 1 2 2 2 1 2 3 4 3 3 2 3 3 2 2 2 3 2 2 1 1 3 2 1 1 1 1
5 6 6 6 6 7 7 7 7 6 5 5 5 4 3 2 2 2 2 2 1 2 2 3 3 3 3 3 3 2 2 2 2 2 2 2 2 2 2 2 2 1 1
4 5 6 7 7 8 8 7 8 7 6 6 5 5 4 4 3 3 2 3 2 2 2 3 3 3 3 3 3 2 2 2 2 2 2 2 2 2 2 2 1 1 1
3 4 5 6 7 8 8 8 8 7 6 6 5 5 4 3 3 3 3 3 2 2 3 3 3 3 3 3 2 2 2 2 2 2 2 2 2 2 2 2 2 2 2
2 2 3 5 6 7 8 8 8 7 7 7 6 5 5 4 4 4 4 3 3 2 3 3 2 2 3 2 2 2 2 2 2 2 2 2 1 2 2 2 3 3 2
2 2 2 3 5 5 6 6 7 7 7 6 6 4 5 5 4 4 4 4 3 2 3 3 3 2 2 2 2 2 2 2 2 2 3 2 2 1 2 2 3 3 3
2 1 1 1 3 4 5 6 6 6 6 7 6 6 5 5 5 5 4 4 4 3 3 3 3 2 2 2 1 2 2 2 2 2 2 2 2 2 2 2 2 3 3
2 2 2 1 1 3 4 5 6 6 6 6 6 6 5 5 5 5 5 5 4 4 4 3 3 2 2 2 2 2 2 2 2 2 2 2 2 2 2 2 3 2 3
3 3 2 1 1 1 3 4 5 5 5 6 6 6 6 5 5 5 5 5 5 5 4 4 3 3 3 2 2 3 2 2 2 2 2 2 2 3 2 3 3 2 2
4 4 3 2 1 1 1 3 4 4 5 5 6 6 6 6 6 6 5 5 5 5 5 4 4 4 4 3 3 3 3 2 2 2 2 2 2 3 3 3 3 3 2
5 5 4 3 2 1 1 2 3 4 5 5 6 6 6 6 6 6 6 6 5 6 5 5 4 4 4 3 4 4 3 3 2 2 2 1 1 3 3 3 2 3 3
6 5 5 4 3 2 2 2 2 3 4 5 5 4 5 5 6 6 7 6 6 6 6 6 5 4 3 1 3 6 4 3 3 2 2 2 2 2 3 1 2 3 3
6 6 6 5 5 4 2 2 2 2 4 4 4 4 5 5 6 6 7 7 7 7 7 7 6 6 4 3 4 6 6 4 3 3 3 2 1 3 3 5 6 3 3
6 6 6 5 5 4 3 2 1 2 3 3 3 3 4 5 5 6 7 7 7 6 7 7 7 6 5 5 6 6 7 5 5 4 4 3 3 2 3 3 3 2 2
6 5 6 5 5 5 4 3 2 1 3 3 4 4 4 5 5 6 7 7 7 7 7 7 7 8 7 7 7 8 6 5 5 4 4 4 3 1 2 4 3 3 3
6 5 5 5 5 5 5 4 3 3 3 4 5 5 5 5 6 6 7 6 7 7 8 8 8 8 8 6 8 10 6 6 5 4 4 3 3 2 3 5 4 4 3
6 6 5 5 5 5 5 4 4 4 5 5 5 5 5 6 6 6 6 6 7 7 8 8 8 8 8 7 9 10 7 6 5 4 4 3 5 4 5 6 4 2 3
6 6 5 5 5 5 5 5 5 6 6 5 5 6 6 6 5 6 6 6 7 8 8 8 8 7 7 7 8 10 10 8 7 5 5 3 6 6 5 5 2 2 4
6 6 6 6 5 5 6 7 6 6 6 6 6 6 6 6 6 6 6 6 6 7 7 7 7 7 6 6 8 10 11 9 7 5 3 3 6 7 6 6 5 6 5
6 6 7 7 6 6 6 7 7 7 7 7 7 6 6 6 6 5 6 6 6 7 7 7 7 7 6 6 6 6 7 9 8 6 5 7 6 6 4 6 6 5 4
6 6 6 7 8 7 7 7 7 7 8 8 7 6 6 6 6 6 6 8 7 7 7 7 7 7 7 6 6 6 7 7 7 6 6 6 7 7 7 6 5 5 5
6 6 7 8 8 8 8 7 7 7 8 8 7 6 5 5 6 6 6 7 9 9 10 10 10 8 7 5 8 9 8 8 8 8 8 8 8 8 7 7 7 6 6
Wind_Direction
185 180 183 187 188 187 188 180 177 165 166 171 196 201 197 280 342 2 3 347 344 343 334 325 337 328 330 322 312 297 275 275 276 260 239 199 195 153 160 238 241 182 170
186 179 183 187 190 185 186 182 181 172 176 173 195 252 320 294 344 328 336 342 344 342 329 329 326 333 326 319 313 303 289 278 274 275 262 222 177 157 135 163 199 185 155
201 188 188 192 190 189 184 184 181 173 171 169 168 169 186 239 226 276 323 335 330 336 333 332 329 328 319 327 309 293 277 279 270 292 292 285 279 123 147 128 139 125 134
203 192 190 192 192 189 181 185 182 178 173 179 193 216 257 291 316 309 322 306 313 326 332 329 327 324 324 321 310 311 288 275 262 242 281 304 329 278 175 152 118 114 133
201 193 193 192 189 181 179 184 182 182 181 192 192 227 252 290 302 294 305 303 328 320 331 325 325 324 321 322 320 312 290 274 276 269 255 254 252 263 258 194 166 152 140
189 190 185 182 182 176 177 182 185 185 189 199 205 223 246 268 281 285 299 293 306 310 337 327 326 326 325 319 311 296 282 283 278 274 266 259 259 255 241 223 198 189 147
178 185 184 182 182 181 182 185 188 189 192 203 214 225 234 252 262 279 280 290 304 308 334 330 332 336 327 319 311 293 293 271 266 270 280 281 276 277 270 248 218 213 187
163 181 188 185 186 187 188 191 193 195 194 205 217 229 228 242 261 268 281 286 299 314 326 325 339 337 328 311 306 292 287 276 257 260 271 271 272 268 259 256 247 231 204
136 160 176 182 188 191 193 197 197 198 200 207 215 227 236 237 251 257 265 276 284 300 308 316 327 335 330 314 301 294 287 287 288 272 253 255 259 255 251 244 251 263 250
103 126 161 182 188 189 191 195 203 204 207 210 215 218 230 229 241 255 256 264 277 284 285 299 317 325 327 316 305 298 307 279 270 275 271 259 253 246 242 242 246 255 264
67 88 120 156 177 183 186 192 201 208 209 212 215 220 223 227 232 242 249 255 263 266 270 282 300 314 316 312 290 286 292 285 276 247 247 247 260 245 229 235 242 245 246
43 63 84 112 161 188 196 199 204 209 211 214 218 223 227 223 231 238 244 248 255 259 264 274 286 294 294 297 302 299 286 280 285 276 260 245 222 241 249 245 239 235 240
51 62 74 88 130 192 210 212 213 215 212 209 217 221 224 225 230 238 241 247 248 249 247 253 265 275 278 279 275 278 276 272 279 285 283 275 250 234 234 240 241 233 226
45 44 40 42 32 246 226 228 224 217 215 213 217 223 228 228 233 235 235 242 245 247 249 253 257 264 269 274 272 268 270 270 278 284 284 283 274 262 250 235 233 223 219
36 29 26 21 10 330 278 253 238 218 213 216 222 227 230 228 234 238 237 238 243 249 249 252 255 261 267 282 290 276 269 271 267 264 272 290 336 355 319 289 251 219 217
24 17 16 12 4 355 318 275 253 235 220 223 231 235 239 232 233 237 240 236 236 242 245 246 250 251 253 265 279 282 270 261 254 254 253 222 193 200 215 275 307 295 244
14 10 5 1 355 352 340 304 263 232 226 228 231 236 241 236 236 236 235 234 233 237 243 243 245 247 237 202 227 251 268 263 259 257 249 241 217 226 213 189 196 210 257
10 6 358 355 349 350 345 330 299 247 239 242 242 242 250 246 243 241 237 236 238 234 239 244 247 247 237 204 222 235 248 251 248 248 250 243 231 223 259 222 199 191 186
9 4 353 352 350 350 344 332 319 288 263 261 260 254 249 248 245 241 239 239 238 236 235 238 241 244 233 204 213 227 241 241 242 242 246 254 238 138 257 235 211 202 184
10 4 356 359 359 352 339 330 329 316 295 280 271 264 255 248 245 244 245 242 241 239 239 238 239 242 246 202 205 224 237 237 234 229 224 215 253 180 219 234 222 221 214
7 360 356 356 351 344 331 323 328 323 314 300 284 271 259 253 251 248 245 242 240 241 242 242 241 243 245 213 203 216 236 237 236 229 224 201 181 204 212 243 242 238 253
1 355 348 347 345 339 325 319 324 321 314 304 290 278 268 261 253 247 246 243 238 239 241 243 243 241 233 229 211 211 227 249 238 234 228 195 168 189 204 216 204 207 231
349 345 337 333 339 338 324 316 322 317 308 299 289 283 276 263 256 249 243 242 236 239 243 242 243 239 232 214 208 212 217 228 236 233 213 184 174 189 196 198 206 212 216
338 333 329 327 332 333 324 317 319 312 303 297 293 288 282 273 260 253 250 246 242 240 242 242 244 243 233 226 213 211 208 207 216 218 192 187 194 211 215 198 202 214 218
332 327 321 319 321 324 320 322 319 309 302 299 296 295 288 283 273 259 256 255 250 250 247 246 245 243 240 227 218 226 222 216 213 207 209 210 205 207 209 209 204 204 203
325 321 318 318 318 319 316 318 317 307 303 302 302 298 291 284 277 272 265 254 258 258 249 253 255 250 250 229 213 222 229 217 198 207 216 216 214 212 209 208 204 203 203